TRA6411 EHAM-LIRN

Flight info

Callsign TRA6411
Flight time 1h 23m
Altitude 37000
Route EDUPO Z739 MISGO DCT ASBON DCT TUSUK DCT ULNOK L607 ABUKA DCT TEDGO DCT BATUB DCT TIRUL M738 NATAG DCT LORLO DCT LUMAV DCT LIKNO DCT ASDOR DCT EVULI DCT ERIKA
Aircraft B738/M-SDE2E3FGHIRWXY/LB1

Departure

Time 2026-04-27 13:10
Airport Amsterdam Airport Schiphol (EHAM)

Arrival

Time 2026-04-27 14:33
Airport Naples International Airport (LIRN)
Time Latitude Longitude Altitude Speed Heading
2026-04-27 12:27 52.30576 4.76695 -3 ft 0 kts 215°
2026-04-27 12:46 52.30593 4.76714 -3 ft 4 kts 212°
2026-04-27 12:47 52.30616 4.76736 -4 ft 4 kts 205°
2026-04-27 12:47 52.30641 4.76751 -4 ft 4 kts 184°
2026-04-27 12:47 52.30661 4.76746 -4 ft 1 kts 146°
2026-04-27 12:53 52.30635 4.76778 -3 ft 7 kts 140°
2026-04-27 12:53 52.30605 4.76840 -3 ft 7 kts 118°
2026-04-27 12:54 52.30575 4.76899 -3 ft 7 kts 142°
2026-04-27 12:54 52.30535 4.76942 -4 ft 7 kts 148°
2026-04-27 12:54 52.30491 4.76967 -4 ft 7 kts 179°
2026-04-27 12:54 52.30448 4.76916 -4 ft 10 kts 233°
2026-04-27 12:55 52.30402 4.76805 -4 ft 14 kts 237°
2026-04-27 12:55 52.30346 4.76657 -4 ft 17 kts 239°
2026-04-27 12:55 52.30279 4.76479 -3 ft 20 kts 238°
2026-04-27 12:55 52.30203 4.76282 -3 ft 21 kts 238°
2026-04-27 12:56 52.30126 4.76079 -4 ft 21 kts 238°
2026-04-27 12:56 52.30050 4.75882 -4 ft 20 kts 238°
2026-04-27 12:56 52.29978 4.75691 -4 ft 19 kts 237°
2026-04-27 12:56 52.29908 4.75511 -3 ft 16 kts 237°
2026-04-27 12:57 52.29885 4.75453 -3 ft 7 kts 238°
2026-04-27 12:57 52.29860 4.75386 -3 ft 7 kts 239°
2026-04-27 12:57 52.29837 4.75313 -3 ft 8 kts 250°
2026-04-27 12:57 52.29836 4.75217 -3 ft 10 kts 287°
2026-04-27 12:58 52.29878 4.75121 -4 ft 12 kts 311°
2026-04-27 12:58 52.29937 4.75013 -4 ft 14 kts 312°
2026-04-27 12:58 52.30010 4.74880 -4 ft 17 kts 311°
2026-04-27 12:58 52.30096 4.74720 -4 ft 20 kts 311°
2026-04-27 12:59 52.30194 4.74539 -4 ft 22 kts 311°
2026-04-27 12:59 52.30287 4.74366 -3 ft 15 kts 311°
2026-04-27 12:59 52.30355 4.74247 -3 ft 14 kts 320°
2026-04-27 12:59 52.30442 4.74194 -3 ft 13 kts 356°
2026-04-27 13:00 52.30535 4.74198 -3 ft 14 kts
2026-04-27 13:00 52.30641 4.74208 -4 ft 16 kts
2026-04-27 13:00 52.30763 4.74221 -3 ft 19 kts
2026-04-27 13:00 52.30898 4.74234 -4 ft 20 kts
2026-04-27 13:01 52.31043 4.74247 -3 ft 21 kts
2026-04-27 13:01 52.31188 4.74261 -4 ft 21 kts
2026-04-27 13:01 52.31329 4.74275 -3 ft 20 kts
2026-04-27 13:01 52.31467 4.74286 -3 ft 19 kts
2026-04-27 13:02 52.31599 4.74298 -1 ft 19 kts
2026-04-27 13:02 52.31728 4.74312 -2 ft 18 kts
2026-04-27 13:02 52.31857 4.74323 -6 ft 18 kts
2026-04-27 13:02 52.31951 4.74332 -7 ft 10 kts
2026-04-27 13:03 52.32014 4.74304 -7 ft 10 kts 317°
2026-04-27 13:03 52.32032 4.74203 -7 ft 9 kts 273°
2026-04-27 13:03 52.32035 4.74091 -7 ft 11 kts 272°
2026-04-27 13:03 52.32038 4.73956 -5 ft 12 kts 272°
2026-04-27 13:04 52.32043 4.73819 -1 ft 12 kts 273°
2026-04-27 13:04 52.32049 4.73668 0 ft 15 kts 274°
2026-04-27 13:04 52.32056 4.73499 1 ft 15 kts 276°
2026-04-27 13:04 52.32092 4.73350 0 ft 14 kts 310°
2026-04-27 13:05 52.32173 4.73232 -2 ft 17 kts 320°
2026-04-27 13:05 52.32282 4.73083 -5 ft 24 kts 320°
2026-04-27 13:05 52.32418 4.72894 -4 ft 27 kts 318°
2026-04-27 13:05 52.32557 4.72694 -4 ft 26 kts 319°
2026-04-27 13:06 52.32688 4.72502 0 ft 25 kts 313°
2026-04-27 13:06 52.32797 4.72299 -1 ft 23 kts 311°
2026-04-27 13:06 52.32900 4.72106 -4 ft 22 kts 311°
2026-04-27 13:06 52.33002 4.71919 -3 ft 22 kts 312°
2026-04-27 13:07 52.33096 4.71745 -3 ft 16 kts 310°
2026-04-27 13:07 52.33146 4.71616 -2 ft 13 kts 282°
2026-04-27 13:07 52.33121 4.71480 -2 ft 13 kts 229°
2026-04-27 13:07 52.33056 4.71383 -2 ft 13 kts 221°
2026-04-27 13:08 52.32989 4.71286 -4 ft 13 kts 221°
2026-04-27 13:08 52.32922 4.71188 -3 ft 13 kts 221°
2026-04-27 13:08 52.32869 4.71075 -5 ft 13 kts 252°
2026-04-27 13:08 52.32867 4.70961 -5 ft 8 kts 280°
2026-04-27 13:09 52.32893 4.70895 -4 ft 6 kts 329°
2026-04-27 13:09 52.32916 4.70889 -5 ft 0 kts 357°
2026-04-27 13:09 52.32959 4.70890 -6 ft 29 kts
2026-04-27 13:10 52.33487 4.70938 -4 ft 119 kts
2026-04-27 13:10 52.34521 4.71063 356 ft 163 kts
2026-04-27 13:10 52.35688 4.71283 1349 ft 173 kts
2026-04-27 13:10 52.36902 4.71455 2398 ft 186 kts
2026-04-27 13:11 52.38288 4.71590 2815 ft 213 kts
2026-04-27 13:11 52.39839 4.71675 3220 ft 230 kts
2026-04-27 13:11 52.41498 4.71784 3607 ft 250 kts
2026-04-27 13:11 52.43167 4.72679 4307 ft 258 kts 30°
2026-04-27 13:12 52.44709 4.74160 5306 ft 257 kts 29°
2026-04-27 13:12 52.46277 4.75624 5966 ft 260 kts 30°
2026-04-27 13:12 52.47601 4.77629 6273 ft 267 kts 57°
2026-04-27 13:12 52.48212 4.80507 6296 ft 271 kts 81°
2026-04-27 13:13 52.48386 4.83592 6301 ft 272 kts 84°
2026-04-27 13:13 52.48531 4.86708 6456 ft 277 kts 84°
2026-04-27 13:13 52.48486 4.89867 7231 ft 280 kts 103°
2026-04-27 13:13 52.47591 4.92696 8124 ft 284 kts 131°
2026-04-27 13:14 52.46075 4.94808 8934 ft 288 kts 144°
2026-04-27 13:14 52.44421 4.96700 9761 ft 292 kts 146°
2026-04-27 13:14 52.42733 4.98595 10503 ft 297 kts 147°
2026-04-27 13:14 52.40975 5.00578 10822 ft 319 kts 146°
2026-04-27 13:15 52.39091 5.02731 11005 ft 342 kts 146°
2026-04-27 13:15 52.37108 5.05016 11484 ft 354 kts 146°
2026-04-27 13:15 52.35074 5.07366 12130 ft 360 kts 146°
2026-04-27 13:15 52.33051 5.09811 12909 ft 363 kts 140°
2026-04-27 13:16 52.31280 5.12785 13698 ft 367 kts 132°
2026-04-27 13:16 52.29623 5.15990 14374 ft 371 kts 131°
2026-04-27 13:16 52.27938 5.19229 14976 ft 377 kts 133°
2026-04-27 13:16 52.26195 5.22463 15573 ft 382 kts 133°
2026-04-27 13:17 52.24421 5.25700 16173 ft 387 kts 133°
2026-04-27 13:17 52.22752 5.29113 16770 ft 393 kts 128°
2026-04-27 13:17 52.21175 5.32782 17363 ft 398 kts 126°
2026-04-27 13:17 52.19587 5.36592 17961 ft 403 kts 126°
2026-04-27 13:18 52.17997 5.40376 18548 ft 407 kts 126°
2026-04-27 13:18 52.16371 5.44182 19057 ft 412 kts 127°
2026-04-27 13:18 52.14735 5.47960 19555 ft 415 kts 127°
2026-04-27 13:18 52.13056 5.51808 20049 ft 420 kts 127°
2026-04-27 13:19 52.11349 5.55705 20574 ft 423 kts 128°
2026-04-27 13:19 52.09637 5.59610 21097 ft 426 kts 128°
2026-04-27 13:19 52.07905 5.63555 21607 ft 430 kts 128°
2026-04-27 13:19 52.06157 5.67526 22100 ft 433 kts 128°
2026-04-27 13:20 52.04277 5.71355 22580 ft 435 kts 134°
2026-04-27 13:20 52.02262 5.75034 23059 ft 438 kts 135°
2026-04-27 13:20 52.00220 5.78730 23532 ft 441 kts 134°
2026-04-27 13:20 51.98179 5.82492 23970 ft 445 kts 134°
2026-04-27 13:21 51.96146 5.86288 24351 ft 448 kts 134°
2026-04-27 13:21 51.94094 5.90117 24720 ft 451 kts 134°
2026-04-27 13:21 51.92029 5.93964 25079 ft 454 kts 134°
2026-04-27 13:21 51.89942 5.97844 25257 ft 459 kts 134°
2026-04-27 13:22 51.87838 6.01750 25244 ft 462 kts 134°
2026-04-27 13:22 51.85719 6.05676 25368 ft 464 kts 135°
2026-04-27 13:22 51.83586 6.09602 25795 ft 464 kts 135°
2026-04-27 13:22 51.81449 6.13510 26297 ft 464 kts 135°
2026-04-27 13:23 51.77531 6.20659 26942 ft 469 kts 135°
2026-04-27 13:23 51.74161 6.26807 27443 ft 473 kts 135°
2026-04-27 13:23 51.69786 6.34791 28104 ft 478 kts 135°
2026-04-27 13:23 51.65350 6.42864 28713 ft 483 kts 135°
2026-04-27 13:24 51.61940 6.49047 29155 ft 486 kts 135°
2026-04-27 13:24 51.57415 6.57224 29719 ft 491 kts 135°
2026-04-27 13:24 51.52865 6.65427 30275 ft 495 kts 135°
2026-04-27 13:24 51.48264 6.73701 30933 ft 494 kts 136°
2026-04-27 13:25 51.43716 6.81855 31706 ft 489 kts 136°
2026-04-27 13:25 51.40956 6.86609 32037 ft 487 kts 141°
2026-04-27 13:25 51.38352 6.90014 32314 ft 480 kts 152°
2026-04-27 13:25 51.33333 6.95004 32921 ft 475 kts 154°
2026-04-27 13:26 51.27700 7.00521 33531 ft 474 kts 153°
2026-04-27 13:26 51.22111 7.06069 34187 ft 472 kts 153°
2026-04-27 13:26 51.16545 7.11629 34676 ft 472 kts 153°
2026-04-27 13:26 51.10974 7.17185 35045 ft 472 kts 153°
2026-04-27 13:27 51.05404 7.22723 35476 ft 472 kts 153°
2026-04-27 13:27 51.01102 7.26987 35822 ft 472 kts 153°
2026-04-27 13:27 50.98312 7.29747 36032 ft 472 kts 152°
2026-04-27 13:27 50.95530 7.32495 36244 ft 471 kts 152°
2026-04-27 13:28 50.92753 7.35235 36466 ft 471 kts 152°
2026-04-27 13:28 50.89968 7.37978 36680 ft 470 kts 152°
2026-04-27 13:28 50.87188 7.40713 36871 ft 470 kts 152°
2026-04-27 13:28 50.84411 7.43441 37065 ft 470 kts 152°
2026-04-27 13:29 50.81625 7.46174 37218 ft 471 kts 152°
2026-04-27 13:29 50.76322 7.51365 37215 ft 477 kts 152°
2026-04-27 13:29 50.66442 7.61269 37212 ft 476 kts 150°
2026-04-27 13:30 50.55509 7.72671 37204 ft 466 kts 150°
2026-04-27 13:30 50.44728 7.83751 37226 ft 464 kts 151°
2026-04-27 13:31 50.33807 7.94903 37229 ft 474 kts 151°
2026-04-27 13:31 50.25210 8.03647 37227 ft 481 kts 151°
2026-04-27 13:32 50.19757 8.09176 37208 ft 479 kts 151°
2026-04-27 13:32 50.12847 8.16154 37188 ft 472 kts 152°
2026-04-27 13:33 50.02234 8.25966 37222 ft 461 kts 154°
2026-04-27 13:33 49.91123 8.36179 37222 ft 469 kts 153°
2026-04-27 13:34 49.83644 8.43501 37178 ft 481 kts 142°
2026-04-27 13:34 49.77422 8.52766 37200 ft 486 kts 140°
2026-04-27 13:35 49.74082 8.57341 37170 ft 481 kts 149°
2026-04-27 13:35 49.71246 8.59949 37200 ft 469 kts 159°
2026-04-27 13:35 49.68246 8.61815 37186 ft 461 kts 168°
2026-04-27 13:36 49.58358 8.64645 37181 ft 455 kts 175°
2026-04-27 13:36 49.47585 8.67634 37192 ft 458 kts 172°
2026-04-27 13:37 49.44520 8.69080 37177 ft 466 kts 161°
2026-04-27 13:37 49.40683 8.71729 37186 ft 467 kts 160°
2026-04-27 13:37 49.36735 8.74560 37166 ft 468 kts 159°
2026-04-27 13:38 49.26891 8.81516 37188 ft 468 kts 160°
2026-04-27 13:38 49.14998 8.89721 37160 ft 469 kts 160°
2026-04-27 13:39 49.03082 8.97895 37173 ft 470 kts 160°
2026-04-27 13:39 48.91127 9.06056 37147 ft 471 kts 160°
2026-04-27 13:40 48.79150 9.14189 37159 ft 472 kts 160°
2026-04-27 13:40 48.67147 9.22300 37146 ft 472 kts 160°
2026-04-27 13:41 48.57157 9.28542 37160 ft 468 kts 166°
2026-04-27 13:41 48.50487 9.31837 37148 ft 468 kts 166°
2026-04-27 13:42 48.40692 9.36722 37141 ft 469 kts 166°
2026-04-27 13:42 48.34647 9.39806 37142 ft 469 kts 166°
2026-04-27 13:43 48.22288 9.46099 37144 ft 469 kts 165°
2026-04-27 13:43 48.09938 9.52349 37150 ft 469 kts 165°
2026-04-27 13:44 48.01357 9.57013 37141 ft 472 kts 156°
2026-04-27 13:44 47.92434 9.65934 37158 ft 476 kts 148°
2026-04-27 13:45 47.81564 9.77161 37142 ft 476 kts 148°
2026-04-27 13:45 47.70630 9.88238 37162 ft 475 kts 148°
2026-04-27 13:46 47.59689 9.99268 37155 ft 476 kts 148°
2026-04-27 13:46 47.48724 10.10268 37165 ft 476 kts 148°
2026-04-27 13:47 47.37714 10.21257 37162 ft 478 kts 148°
2026-04-27 13:47 47.26637 10.32256 37176 ft 482 kts 148°
2026-04-27 13:48 47.15491 10.43270 37157 ft 482 kts 147°
2026-04-27 13:48 47.06488 10.52009 37147 ft 479 kts 153°
2026-04-27 13:49 46.98170 10.56436 37151 ft 473 kts 166°
2026-04-27 13:49 46.86266 10.61680 37129 ft 473 kts 165°
2026-04-27 13:50 46.74480 10.66970 37128 ft 472 kts 165°
2026-04-27 13:50 46.63611 10.72245 37107 ft 470 kts 162°
2026-04-27 13:51 46.51321 10.78571 37117 ft 468 kts 162°
2026-04-27 13:51 46.39003 10.84778 37171 ft 469 kts 162°
2026-04-27 13:52 46.26677 10.90950 37223 ft 469 kts 162°
2026-04-27 13:52 46.14321 10.97111 37173 ft 470 kts 162°
2026-04-27 13:53 45.95777 11.06304 37100 ft 470 kts 162°
2026-04-27 13:54 45.83405 11.12399 37123 ft 469 kts 162°
2026-04-27 13:54 45.71021 11.18473 37098 ft 470 kts 162°
2026-04-27 13:55 45.58650 11.24511 37082 ft 469 kts 162°
2026-04-27 13:55 45.46292 11.30516 37096 ft 469 kts 162°
2026-04-27 13:56 45.33934 11.36493 37106 ft 469 kts 162°
2026-04-27 13:56 45.21584 11.42438 37113 ft 468 kts 162°
2026-04-27 13:57 45.09255 11.48346 37133 ft 467 kts 162°
2026-04-27 13:57 44.96927 11.54228 37138 ft 467 kts 162°
2026-04-27 13:58 44.84619 11.60074 37164 ft 467 kts 162°
2026-04-27 13:58 44.76285 11.65088 37170 ft 466 kts 153°
2026-04-27 13:59 44.64829 11.73662 37147 ft 467 kts 153°
2026-04-27 13:59 44.53298 11.82054 37157 ft 467 kts 153°
2026-04-27 14:00 44.41820 11.90339 37159 ft 467 kts 153°
2026-04-27 14:00 44.30261 11.98652 37162 ft 467 kts 153°
2026-04-27 14:01 44.18699 12.06930 37083 ft 467 kts 153°
2026-04-27 14:01 44.07124 12.15180 37091 ft 468 kts 153°
2026-04-27 14:02 43.95539 12.23402 37138 ft 467 kts 153°
2026-04-27 14:02 43.84266 12.31371 37126 ft 468 kts 153°
2026-04-27 14:02 43.81540 12.33804 37090 ft 468 kts 136°
2026-04-27 14:03 43.79459 12.37225 37129 ft 464 kts 120°
2026-04-27 14:03 43.78106 12.41260 37124 ft 461 kts 107°
2026-04-27 14:03 43.76825 12.45323 37069 ft 464 kts 124°
2026-04-27 14:03 43.74611 12.48526 37121 ft 463 kts 145°
2026-04-27 14:04 43.71736 12.50472 37105 ft 461 kts 167°
2026-04-27 14:04 43.61467 12.51994 37083 ft 462 kts 172°
2026-04-27 14:04 43.55209 12.54142 37090 ft 465 kts 161°
2026-04-27 14:05 43.49189 12.57408 37086 ft 467 kts 157°
2026-04-27 14:05 43.37276 12.64660 37094 ft 469 kts 157°
2026-04-27 14:06 43.25276 12.71796 37103 ft 470 kts 157°
2026-04-27 14:06 43.13216 12.78898 37102 ft 472 kts 157°
2026-04-27 14:07 43.01147 12.85980 37093 ft 472 kts 157°
2026-04-27 14:07 42.89092 12.93025 37086 ft 471 kts 158°
2026-04-27 14:08 42.77061 13.00025 37104 ft 468 kts 158°
2026-04-27 14:08 42.65079 13.06968 37105 ft 467 kts 158°
2026-04-27 14:09 42.53141 13.13857 37107 ft 466 kts 158°
2026-04-27 14:09 42.41215 13.20710 37095 ft 465 kts 159°
2026-04-27 14:10 42.35252 13.24128 37073 ft 440 kts 159°
2026-04-27 14:10 42.30556 13.26816 36972 ft 419 kts 159°
2026-04-27 14:10 42.27890 13.28337 36632 ft 415 kts 159°
2026-04-27 14:10 42.25227 13.29856 36027 ft 418 kts 159°
2026-04-27 14:11 42.22511 13.31401 34971 ft 429 kts 159°
2026-04-27 14:11 42.19711 13.32996 33636 ft 443 kts 158°
2026-04-27 14:11 42.16934 13.34960 32160 ft 459 kts 149°
2026-04-27 14:11 42.14389 13.37582 31396 ft 458 kts 139°
2026-04-27 14:12 42.10777 13.42204 30696 ft 442 kts 137°
2026-04-27 14:12 42.08564 13.45062 30251 ft 439 kts 138°
2026-04-27 14:12 42.04591 13.50154 29341 ft 434 kts 138°
2026-04-27 14:12 42.03142 13.51996 29038 ft 431 kts 138°
2026-04-27 14:13 41.96231 13.60718 27599 ft 420 kts 138°
2026-04-27 14:13 41.94103 13.63393 27155 ft 417 kts 138°
2026-04-27 14:14 41.91992 13.66044 26720 ft 414 kts 138°
2026-04-27 14:14 41.89894 13.68677 26286 ft 412 kts 138°
2026-04-27 14:14 41.87807 13.71294 25860 ft 409 kts 137°
2026-04-27 14:14 41.84668 13.75227 25202 ft 406 kts 137°
2026-04-27 14:15 41.80561 13.80364 24379 ft 402 kts 137°
2026-04-27 14:15 41.76489 13.85448 23515 ft 398 kts 137°
2026-04-27 14:15 41.72504 13.90415 22565 ft 395 kts 137°
2026-04-27 14:15 41.68500 13.95398 21666 ft 391 kts 137°
2026-04-27 14:16 41.64539 14.00319 20822 ft 386 kts 137°
2026-04-27 14:16 41.61696 14.03879 20212 ft 383 kts 135°
2026-04-27 14:16 41.58090 14.09060 19401 ft 379 kts 132°
2026-04-27 14:16 41.54577 14.14267 18571 ft 376 kts 133°
2026-04-27 14:17 41.51049 14.19421 17653 ft 374 kts 133°
2026-04-27 14:17 41.47535 14.24510 16795 ft 370 kts 133°
2026-04-27 14:17 41.44123 14.29439 16436 ft 352 kts 133°
2026-04-27 14:17 41.41800 14.32725 16261 ft 338 kts 136°
2026-04-27 14:18 41.38332 14.36749 15961 ft 322 kts 140°
2026-04-27 14:18 41.35023 14.40554 15702 ft 306 kts 139°
2026-04-27 14:18 41.32891 14.42908 15435 ft 300 kts 147°
2026-04-27 14:18 41.29354 14.45771 14897 ft 296 kts 149°
2026-04-27 14:19 41.27026 14.47520 14524 ft 295 kts 161°
2026-04-27 14:19 41.25026 14.47854 14251 ft 289 kts 189°
2026-04-27 14:19 41.23161 14.47009 13946 ft 284 kts 214°
2026-04-27 14:19 41.21696 14.45313 13634 ft 278 kts 235°
2026-04-27 14:20 41.19958 14.41674 13158 ft 274 kts 240°
2026-04-27 14:20 41.18698 14.39176 12797 ft 274 kts 225°
2026-04-27 14:20 41.17060 14.37922 12515 ft 276 kts 194°
2026-04-27 14:20 41.15162 14.37888 12260 ft 275 kts 167°
2026-04-27 14:21 41.13217 14.39049 11970 ft 273 kts 149°
2026-04-27 14:21 41.10528 14.41299 11523 ft 270 kts 144°
2026-04-27 14:21 41.09274 14.43121 11224 ft 270 kts 115°
2026-04-27 14:21 41.08848 14.45486 11042 ft 263 kts 88°
2026-04-27 14:22 41.09209 14.47819 10878 ft 258 kts 64°
2026-04-27 14:22 41.11968 14.53752 10457 ft 255 kts 57°
2026-04-27 14:22 41.12928 14.55761 10288 ft 258 kts 57°
2026-04-27 14:22 41.13893 14.57780 10136 ft 260 kts 57°
2026-04-27 14:23 41.15078 14.60282 9926 ft 259 kts 58°
2026-04-27 14:23 41.16965 14.64345 9577 ft 257 kts 58°
2026-04-27 14:23 41.18830 14.68373 9267 ft 255 kts 58°
2026-04-27 14:23 41.20096 14.71206 9044 ft 252 kts 67°
2026-04-27 14:24 41.20327 14.73447 8914 ft 243 kts 100°
2026-04-27 14:24 41.19695 14.75480 8778 ft 238 kts 127°
2026-04-27 14:24 41.18490 14.77011 8602 ft 239 kts 146°
2026-04-27 14:24 41.17091 14.78188 8422 ft 234 kts 149°
2026-04-27 14:25 41.15727 14.79279 8271 ft 223 kts 149°
2026-04-27 14:25 41.14341 14.80047 8101 ft 211 kts 175°
2026-04-27 14:25 41.12964 14.79730 7984 ft 197 kts 205°
2026-04-27 14:25 41.11883 14.78667 7864 ft 191 kts 229°
2026-04-27 14:26 41.10631 14.76160 7694 ft 189 kts 238°
2026-04-27 14:26 41.09263 14.73182 7478 ft 189 kts 238°
2026-04-27 14:26 41.07883 14.70216 7275 ft 189 kts 238°
2026-04-27 14:26 41.06614 14.67503 7071 ft 191 kts 237°
2026-04-27 14:27 41.05705 14.65559 6797 ft 199 kts 237°
2026-04-27 14:27 41.04941 14.63917 6534 ft 199 kts 237°
2026-04-27 14:27 41.04218 14.62365 6246 ft 197 kts 236°
2026-04-27 14:27 41.03165 14.60110 5848 ft 191 kts 235°
2026-04-27 14:28 41.01894 14.57394 5320 ft 184 kts 236°
2026-04-27 14:28 41.01230 14.55972 5069 ft 183 kts 236°
2026-04-27 14:28 41.00116 14.53564 4664 ft 179 kts 236°
2026-04-27 14:28 40.98997 14.51169 4200 ft 177 kts 237°
2026-04-27 14:29 40.97988 14.49009 3838 ft 180 kts 237°
2026-04-27 14:29 40.97115 14.47152 3491 ft 178 kts 237°
2026-04-27 14:29 40.96461 14.45769 3228 ft 177 kts 238°
2026-04-27 14:29 40.95749 14.44417 3013 ft 181 kts 233°
2026-04-27 14:30 40.95049 14.43092 3030 ft 168 kts 238°
2026-04-27 14:30 40.94453 14.41805 2834 ft 158 kts 239°
2026-04-27 14:30 40.93931 14.40603 2609 ft 146 kts 242°
2026-04-27 14:30 40.93436 14.39435 2216 ft 147 kts 240°
2026-04-27 14:31 40.92898 14.38277 1855 ft 148 kts 238°
2026-04-27 14:31 40.92344 14.37149 1628 ft 144 kts 238°
2026-04-27 14:31 40.91846 14.36046 1451 ft 138 kts 238°
2026-04-27 14:31 40.91365 14.34929 1167 ft 140 kts 237°
2026-04-27 14:32 40.90854 14.33834 933 ft 142 kts 234°
2026-04-27 14:32 40.90332 14.32705 727 ft 137 kts 236°
2026-04-27 14:32 40.89857 14.31686 562 ft 130 kts 232°
2026-04-27 14:32 40.89353 14.30661 337 ft 135 kts 236°
2026-04-27 14:33 40.88868 14.29643 246 ft 122 kts 233°
2026-04-27 14:33 40.88497 14.28861 277 ft 78 kts 238°
2026-04-27 14:33 40.88372 14.28590 287 ft 1 kts 238°
2026-04-27 14:33 40.88358 14.28562 288 ft 5 kts 233°
2026-04-27 14:34 40.88335 14.28529 290 ft 5 kts 224°
2026-04-27 14:34 40.88310 14.28500 290 ft 5 kts 220°
2026-04-27 14:34 40.88284 14.28473 291 ft 5 kts 217°
2026-04-27 14:34 40.88259 14.28449 296 ft 4 kts 213°
2026-04-27 14:35 40.88233 14.28428 293 ft 4 kts 212°
2026-04-27 14:35 40.88208 14.28407 295 ft 4 kts 210°
2026-04-27 14:35 40.88182 14.28389 298 ft 4 kts 208°
2026-04-27 14:35 40.88157 14.28371 298 ft 4 kts 208°
2026-04-27 14:36 40.88133 14.28354 297 ft 4 kts 208°
2026-04-27 14:36 40.88109 14.28337 299 ft 4 kts 206°
2026-04-27 14:36 40.88084 14.28326 298 ft 4 kts 185°
2026-04-27 14:36 40.88065 14.28347 299 ft 4 kts 114°
2026-04-27 14:37 40.88056 14.28390 300 ft 6 kts 100°
2026-04-27 14:37 40.88053 14.28420 297 ft 3 kts 97°
2026-04-27 14:37 40.88050 14.28458 295 ft 5 kts 97°
2026-04-27 14:37 40.88044 14.28514 294 ft 7 kts 97°